Simultaneous Nadir Overpasses (SNOs) Predictions

Prediction of SNOs between GOES-15 and TERRA Satellite Orbit:

Table of predicted SNOs for the next 14.0 days since TLE Epoch: 6/8/2017
Index Date Time (GOES-15) GOES-15 Lat,Lon TERRA Lat,Lon Distance(km) Time Diff (sec)
1 06/09/2017 07:22:10 0.12,-135.21 0.50,-133.34 212.12 80
2 06/09/2017 19:46:06 -0.10,-135.26 0.58,-138.50 368.16 80
3 06/11/2017 19:33:55 -0.11,-135.30 -0.06,-135.55 27.66 80
4 06/13/2017 19:19:04 -0.12,-135.34 -0.70,-132.60 312.18 80
5 06/14/2017 07:43:08 0.11,-135.31 -0.41,-137.78 281.38 80
6 06/16/2017 07:28:17 0.11,-135.34 0.23,-134.83 57.81 80
7 06/18/2017 07:16:06 0.12,-135.36 0.87,-131.88 396.49 80
8 06/18/2017 19:40:00 -0.10,-135.41 0.26,-137.03 184.40 80
9 06/20/2017 19:25:10 -0.11,-135.43 -0.39,-134.08 153.36 80
10 06/21/2017 07:49:13 0.09,-135.39 -0.73,-139.26 440.65 80




NCC Satellite Simultaneous Nadir Overpasses (SNOs) Prediction Service
